User: anonymous   Login
Location: Owatonna
(44.0840°N, 93.2260°W)
Time: 14:29:19
(UTC-06:00)
Language:

Cosmos 1500 Rocket - Orbit

View from above orbital plane
View from above orbital plane
View from above satellite
View from above satellite

Ground track
Ground track

The orbit data is extracted from the following two-line orbital elements,

1 14373U 83099B   15025.46884461  .00000379  00000-0  43262-4 0  8822
2 14373 082.5433 340.8959 0019442 225.6302 274.1787 14.83322356691338
Epoch (UTC): 25 January 2015 11:15:08
Eccentricity: 0.0019442
inclination: 82.5433°
perigee height: 605 km
apogee height: 632 km
right ascension of ascending node: 340.8959°
argument of perigee: 225.6302°
revolutions per day: 14.83322356
mean anomaly at epoch: 274.1787°
orbit number at epoch: 69133

The dashed part of the orbit path shows where the satellite is in the earth's shadow,  

DLR